This demonstration page uses our WeatherBlox Daily Observations layout. Learn more.

Left ArrowRight Arrow

36.17497, -115.13722

Hourly Observations for January 21, 2021

Temp ( °F °C ) Dew Point ( °F °C ) Humidity (%) Winds ( mph kmh ) Pressure ( in mb ) Visibility ( mi km ) Precip ( " mm )
12:53 am 00:53 Mostly Cloudy 50 10 32 undefined 50 50 W 5 7 30.08 1019 10 16 N/A
1:53 am 01:53 Clear 49 9.4 30 -1.1 48 48 NNW 8 13 30.08 1019 10 16 N/A
2:53 am 02:53 Clear 50 10 30 -1.1 46 46 NW 8 13 30.07 1018 10 16 N/A
3:53 am 03:53 Clear 47 8.3 31 -0.6 54 54 WNW 5 7 30.07 1018 10 16 N/A
4:53 am 04:53 Mostly Cloudy 46 7.8 31 -0.6 56 56 S 5 7 30.07 1018 10 16 N/A
5:53 am 05:53 Clear 46 7.8 29 -1.7 51 51 NW 9 15 30.09 1019 10 16 N/A
6:53 am 06:53 Sunny 46 7.8 29 -1.7 51 51 NW 6 9 30.09 1019 10 16 N/A
7:53 am 07:53 Sunny 50 10 30 -1.1 46 46 WNW 8 13 30.09 1019 10 16 N/A
8:53 am 08:53 Sunny 53 11.7 29 -1.7 40 40 NNW 9 15 30.10 1019 10 16 N/A
9:53 am 09:53 Sunny 56 13.3 31 -0.6 39 39 N N/A 30.09 1019 10 16 N/A
10:53 am 10:53 Sunny 60 15.6 33 0.6 36 36 N N/A 30.06 1018 10 16 N/A
11:53 am 11:53 Sunny 62 16.7 32 undefined 32 32 N N/A 30.03 1017 10 16 N/A
12:53 pm 12:53 Sunny 63 17.2 31 -0.6 30 30 ENE 5 7 30.00 1016 10 16 N/A
1:53 pm 13:53 Sunny 63 17.2 32 undefined 31 31 N N/A 29.98 1015 10 16 N/A
2:53 pm 14:53 Sunny 66 18.9 32 undefined 28 28 ENE 3 6 29.96 1014 10 16 N/A
3:53 pm 15:53 Sunny 65 18.3 32 undefined 29 29 SSE 3 6 29.96 1014 10 16 N/A
4:53 pm 16:53 Sunny 63 17.2 32 undefined 31 31 ESE 3 6 29.95 1014 10 16 N/A
5:53 pm 17:53 Clear 60 15.6 32 undefined 35 35 SSE 3 6 29.96 1015 10 16 N/A
6:53 pm 18:53 Clear 59 15 32 undefined 36 36 N N/A 29.97 1015 10 16 N/A
7:53 pm 19:53 Clear 55 12.8 32 undefined 42 42 N N/A 29.97 1015 10 16 N/A
8:53 pm 20:53 Clear 52 11.1 31 -0.6 45 45 NW 3 6 29.98 1015 10 16 N/A
9:53 pm 21:53 Clear 51 10.6 32 undefined 48 48 W 5 7 29.98 1015 10 16 N/A
10:53 pm 22:53 Clear 49 9.4 32 undefined 52 52 NNW 5 7 29.97 1015 10 16 N/A
11:53 pm 23:53 Clear 47 8.3 31 -0.6 54 54 NNW 6 9 29.95 1014 10 16 N/A

Powered by AerisWeather